IRIDIUM 33 DEB

Satellite information

Favourite Embed

Satellite Type and Status

DEBRISIN ORBIT

Key statistics

Satellite IRIDIUM 33 DEB at a glance.

Uptime

10264

Days in orbit

Revolutions

≈ 14.5

Per day

Orbit

LEO

Low Earth Orbit

Inclination

86.4

Latest

Satellite identification and parameters

Extended collection of information and parameters for IRIDIUM 33 DEB.

Object identification

Identified? True

Debris? True

Object name: IRIDIUM 33 DEB

International designator: 1997-051AAK

Object number (NORAD): 39778

Object ID (CCSDS): 39778

Country: UNITED STATES OF AMERICA (US)

Current information (Y/N): Y

RCS size: SMALL

Orbital parameters

Period: 99.064 minutes

Inclination: 86.3763 deg

SMA: 7092.039 km

Apoapsis: 719.206 km

Periapsis: 708.602 km

RAAN: 66.2571 deg

Eccentricy: 0.00074756

Argument of periapsis: 192.192 deg

Mean anomaly: 167.9107 deg

Mean motion: 14.53603974 rev/day

Mean motion (dot): 0.00008106 rev/day2

B* drag term: 0.001933892 1/REarth

Two-line elements (TLE)

Creation date: Oct. 20, 2025, 6:08 p.m.

Reference frame: TEME

Reference center: EARTH

Epoch: Oct. 20, 2025, 3:27 p.m. UTC

TLE line 0: 0 IRIDIUM 33 DEB

TLE line 1: 1 39778U 97051AAK 25293.64435884 .00008106 00000-0 19339-2 0 9991

TLE line 2: 2 39778 86.3763 66.2571 0007476 192.1920 167.9107 14.53603974599213

Live tracking on map

Real-time ground track for satellite IRIDIUM 33 DEB.

In-orbit conjunctions

A list of the most updated potential collisions computed for object IRIDIUM 33 DEB.

Target Orbit TCA Probability of collision Miss distance Type
CZ-6A DEB SSO 2024-12-10 09:09:46 0.0001120623 118.0 (m) DEBRIS
CZ-4 DEB SSO 2024-11-19 01:09:45 0.0001859778 101.0 (m) DEBRIS
WORLDVIEW 2 DEB SSO 2024-08-27 09:47:12 0.000149509 101.0 (m) DEBRIS

Associated space launch

Iridium provides global mobile telecommunications services using a constellation of 66 low earth orbit satellites in a 86.4° inclined orbit. Although 77 satellites were originally envisioned for the system and spawned the name based on the 77th element in the periodic table, the system has been scaled back. Motorola's Satellite Communications Group designed and manufactured the Iridium satellites with Lockheed Martin providing the LM-700A spacecraft buses.

IRIDIUM 33 DEB was lifted into orbit during the mission ‘Proton-K/17S40 | Iridium 27 to 33’, on board a Proton-K/17S40 space rocket.

The launch took place on Sept. 14, 1997, 1:36 a.m. from 81/23 (81L).

For more information about the launch, click the button.

Launch to space Proton-K/17S40 | Iridium 27 to 33
Proton-K/17S40 | Iridium 27 to 33

Agency: N/A

Status: Launch Successful

Launch date: Sept. 14, 1997, 1:36 a.m. UTC

Rocket: Proton-K/17S40

Launch pad: 81/23 (81L)

Location: Baikonur Cosmodrome, Republic of Kazakhstan

...

Latest news about this satellite

There are no fresh news available about this satellite. Check back as we update our databases every day.


Newsletter sign-up

Weekly statistics, charts and insights to help you stay on top of the space industry.